This is the latest recevied weather packets stored in our database for station/object NR6G-12. If no packets are shown the sender has not sent any weather packets the latest 10 day(s).
| Time | Temp. | Humidity | Pressure | Rain* | Wind** | Luminosity | Snow |
|---|---|---|---|---|---|---|---|
| 1777773841 | 17.22° C | 47% | 1012.5 hPa | 0 mm | - | - | - |
| 1777773481 | 17.22° C | 46% | 1012.4 hPa | 0 mm | - | - | - |
| 1777773121 | 17.22° C | 48% | 1013.3 hPa | 0 mm | - | - | - |
| 1777772761 | 17.78° C | 46% | 1013.3 hPa | 0 mm | - | - | - |
| 1777772401 | 17.78° C | 46% | 1013.3 hPa | 0 mm | - | - | - |
| 1777772041 | 17.78° C | 45% | 1013.2 hPa | 0 mm | - | - | - |
| 1777771681 | 18.33° C | 45% | 1013.2 hPa | 0 mm | - | - | - |
| 1777771321 | 18.33° C | 46% | 1013.1 hPa | 0 mm | - | - | - |
| 1777770961 | 18.89° C | 44% | 1013.1 hPa | 0 mm | - | - | - |
| 1777770601 | 19.44° C | 45% | 1013.1 hPa | 0 mm | - | - | - |
| 1777770241 | 19.44° C | 44% | 1013.1 hPa | 0 mm | - | - | - |
| 1777769881 | 20° C | 46% | 1013.2 hPa | 0 mm | - | - | - |
| 1777769521 | 20° C | 46% | 1013.2 hPa | 0 mm | - | - | - |
| 1777769161 | 20° C | 44% | 1013.2 hPa | 0 mm | - | - | - |
| 1777768801 | 20.56° C | 47% | 1013.3 hPa | 0 mm | - | - | - |
| 1777768441 | 20.56° C | 45% | 1013.3 hPa | 0 mm | - | - | - |
| 1777768081 | 20.56° C | 46% | 1013.3 hPa | 0 mm | - | - | - |
| 1777767721 | 20.56° C | 43% | 1013.3 hPa | 0 mm | - | - | - |
| 1777767361 | 20.56° C | 44% | 1013.3 hPa | 0 mm | - | - | - |
| 1777767001 | 20.56° C | 41% | 1013.3 hPa | 0 mm | - | - | - |
| 1777766641 | 20.56° C | 45% | 1013.4 hPa | 0 mm | - | - | - |
| 1777766281 | 20.56° C | 41% | 1013.4 hPa | 0 mm | - | - | - |
| 1777765921 | 20.56° C | 48% | 1013.5 hPa | 0 mm | - | - | - |
| 1777765561 | 20.56° C | 42% | 1013.5 hPa | 0 mm | - | - | - |
| 1777765201 | 20.56° C | 46% | 1013.7 hPa | 0 mm | - | - | - |
* Rain latest hour (hover to see other rain measurements)
** Current wind speed in m/s (hover to see current wind gust speed)